Flag for Tanzania Weather past 2 weeks in Dodoma, Tanzania

Now
82 °F

Scattered clouds.


Feels Like: 81 °F
Forecast: 59 / 84 °F
Wind: 12 mph from East

Location: Dodoma Airport

Current Time: Sep 19, 2014 at 8:52:34 PM

Latest Report: Sep 19, 2014 at 6:00 PM


Visibility: N/A

Pressure: 30.01 "Hg

Humidity: 32%

Dew point: 50 °F

Location of DodomaLocation

Historic Weather in Dodoma — Graph

°F

Dodoma temperature yesterday

Maximum temperature yesterday: 81 °F (at 1:00 PM)
Minimum temperature yesterday: 59 °F (at 6:00 AM)
Average temperature yesterday: 70 °F

Past Weeks' High & Low Weather Summary

 TemperatureHumidityPressure
High88 °F (Sep 19, 3:00 PM)100% (Sep 10, 8:00 AM)30.24 "Hg (Sep 10, 8:00 AM)
Low34 °F (Sep 10, 8:00 AM)23% (Sep 10, 4:00 PM)29.83 "Hg (Sep 7, 4:00 PM)
Average72 °F57%30.11 "Hg
* Reported Sep 4 9:00 PM — Sep 19 6:00 PM, Dodoma, Weather by CustomWeather, © 2014

Note: Actual official high and low records may vary slightly from our data, if they occured in-between our weather recording intervals... More about our weather records

Advertising

Dodoma weather history for previous 24 hours

 ConditionsComfort  
Time TempWeatherWind HumidityBarometerVisibility
6:00 PM
Sep 19
82 °FScattered clouds.12 mph32%30.01 "HgN/A
5:00 PM86 °FScattered clouds.12 mph27%30.01 "HgN/A
3:00 PM88 °FSunny.12 mph27%30.01 "Hg10 mi
2:00 PM84 °FSunny.12 mph33%30.04 "Hg10 mi
1:00 PM82 °FSunny.12 mph37%30.07 "Hg10 mi
12:00 PM79 °FSunny.12 mph39%30.12 "Hg10 mi
10:00 AM81 °FSunny.21 mph37%30.15 "Hg10 mi
9:00 AM68 °FPassing clouds.12 mph60%30.15 "HgN/A
8:00 AM63 °FPassing clouds.12 mph73%30.15 "HgN/A
7:00 AM61 °FPartly sunny.12 mph88%30.15 "HgN/A
6:00 AM61 °FPassing clouds.14 mph72%30.09 "HgN/A
3:00 AM63 °FPassing clouds.12 mph83%30.07 "HgN/A
12:00 AM66 °FPassing clouds.6 mph68%30.09 "HgN/A
11:00 PM
Sep 18
68 °FPassing clouds.17 mph60%30.09 "HgN/A
10:00 PM68 °FPassing clouds.12 mph60%30.07 "HgN/A
9:00 PM70 °FPassing clouds.12 mph60%30.07 "HgN/A
8:00 PM72 °FPassing clouds.14 mph57%30.04 "HgN/A
Weather by CustomWeather, © 2014

See weather overviewHow to use our weather pages